DW4360 Weather Reports


time (UTC)temp
C
wind
direction
speed
KPH
gust
KPH
rain 1hr
cm
rain 24hr
cm
rain mn
cm
humidity
%
barometer
mb
20260906004748 25 91 0.0 0.0 0.00 0.00 0.03 46 1014.0
20260906003747 25 95 0.0 0.0 0.00 0.00 0.03 45 1014.0
20260906001745 24 331 0.0 0.0 0.00 0.00 0.03 47 1013.9
20260906000745 24 331 0.0 0.0 0.00 0.00 0.03 48 1014.1
20260905235743 25 331 0.0 0.0 0.00 0.00 0.03 48 1014.0
20260905233741 23 331 0.0 0.0 0.00 0.00 0.03 52 1014.0
20260905232740 22 334 0.0 0.0 0.00 0.00 0.03 52 1014.2
20260905231739 22 334 0.0 0.0 0.00 0.00 0.03 53 1014.3
20260905230738 22 338 0.0 0.0 0.00 0.00 0.03 52 1014.4
20260905225737 22 338 0.0 0.0 0.00 0.00 0.03 54 1014.4
20260905224736 22 341 0.0 0.0 0.00 0.00 0.03 53 1014.4
20260905223735 22 244 0.0 0.0 0.00 0.00 0.03 52 1014.5
20260905221733 22 327 0.0 0.0 0.00 0.00 0.03 56 1014.7
20260905220732 22 328 0.0 0.0 0.00 0.00 0.03 51 1014.9
20260905215731 23 331 0.0 0.0 0.00 0.00 0.03 51 1014.8
20260905214730 23 306 0.0 0.0 0.00 0.00 0.03 49 1014.9
20260905213729 23 293 0.0 0.0 0.00 0.00 0.03 50 1015.0
20260905212728 23 338 0.0 0.0 0.00 0.00 0.03 52 1014.9
20260905205725 22 340 6.4 0.0 0.00 0.00 0.03 53 1015.2
20260905204724 22 344 0.0 0.0 0.00 0.00 0.03 54 1015.2
20260905203723 22 76 0.0 0.0 0.00 0.00 0.03 54 1015.2
20260905202722 22 335 0.0 0.0 0.00 0.00 0.03 58 1015.2
20260905201721 21 328 0.0 0.0 0.00 0.00 0.03 59 1015.2
20260905200720 21 80 0.0 0.0 0.00 0.00 0.03 61 1015.4
20260905195719 21 331 0.0 0.0 0.00 0.00 0.03 61 1015.4
20260905194718 21 331 0.0 0.0 0.00 0.00 0.03 60 1015.4
20260905193717 21 54 0.0 0.0 0.00 0.00 0.03 64 1015.6
20260905192716 21 343 0.0 0.0 0.00 0.00 0.03 63 1015.6
20260905191715 20 121 0.0 0.0 0.00 0.00 0.00 64 1015.8
20260905190714 20 120 0.0 0.0 0.00 0.00 0.00 66 1015.8
20260905185713 20 121 0.0 0.0 0.00 0.00 0.00 69 1015.9
20260905184712 20 317 0.0 0.0 0.00 0.00 0.00 67 1016.0
20260905183711 20 322 0.0 0.0 0.00 0.00 0.00 68 1016.1
20260905182710 20 328 0.0 0.0 0.00 0.00 0.00 70 1016.2
20260905181709 20 336 0.0 0.0 0.00 0.00 0.00 72 1016.2
20260905180708 19 345 0.0 0.0 0.00 0.00 0.00 73 1016.3
20260905175707 18 325 1.6 0.0 0.00 0.00 0.00 74 1016.3
20260905172704 17 329 0.0 0.0 0.00 0.00 0.00 82 1016.3
20260905171702 16 334 0.0 0.0 0.00 0.00 0.00 83 1016.4
20260905165700 15 55 0.0 0.0 0.00 0.00 0.00 89 1016.4
20260905164659 14 158 0.0 0.0 0.00 0.00 0.00 92 1016.4
20260905162657 14 172 0.0 0.0 0.00 0.00 0.00 93 1016.4
20260905161656 13 174 0.0 0.0 0.00 0.00 0.00 93 1016.5
20260905160656 14 175 0.0 0.0 0.00 0.00 0.00 94 1016.6
20260905155654 14 174 0.0 0.0 0.00 0.00 0.00 94 1016.5
20260905154654 14 174 0.0 0.0 0.00 0.00 0.00 94 1016.5
20260905153653 14 174 0.0 0.0 0.00 0.00 0.00 94 1016.5
20260905152651 13 175 0.0 0.0 0.00 0.00 0.18 94 1016.5
20260905151651 13 174 0.0 0.0 0.00 0.00 0.18 94 1016.5
20260905150649 13 174 0.0 0.0 0.00 0.00 0.18 94 1016.4
20260905145648 13 174 0.0 0.0 0.00 0.00 0.18 94 1016.4
20260905144647 13 174 0.0 0.0 0.00 0.00 0.18 94 1016.4
20260905143646 13 174 0.0 0.0 0.00 0.00 0.18 94 1016.4
20260905142645 13 174 0.0 0.0 0.00 0.00 0.18 94 1016.4
20260905141644 13 174 0.0 0.0 0.00 0.00 0.18 94 1016.3
20260905135643 13 174 0.0 0.0 0.00 0.00 0.18 94 1016.3
20260905134642 13 174 0.0 0.0 0.00 0.00 0.18 94 1016.3
20260905132639 13 174 0.0 0.0 0.00 0.00 0.18 94 1016.2
20260905131638 13 174 0.0 0.0 0.00 0.00 0.18 94 1016.1
20260905130637 13 174 0.0 0.0 0.00 0.00 0.18 94 1015.9
20260905125637 13 174 0.0 0.0 0.00 0.00 0.18 94 1015.9
20260905122633 13 174 0.0 0.0 0.00 0.00 0.18 94 1015.8
20260905121632 13 174 0.0 0.0 0.00 0.00 0.18 94 1015.8
20260905115630 13 174 0.0 0.0 0.00 0.00 0.18 93 1015.7
20260905112627 13 174 0.0 0.0 0.00 0.00 0.18 93 1015.8
20260905111626 13 174 0.0 0.0 0.00 0.00 0.18 93 1015.7
20260905110625 13 174 0.0 0.0 0.00 0.00 0.18 93 1015.7
20260905104623 13 173 0.0 0.0 0.00 0.00 0.18 94 1015.7
20260905103622 13 173 0.0 0.0 0.00 0.00 0.18 94 1015.8
20260905102621 13 173 0.0 0.0 0.00 0.00 0.18 93 1015.8
20260905101620 13 173 0.0 0.0 0.00 0.00 0.18 93 1015.8
20260905100619 13 173 0.0 0.0 0.00 0.00 0.18 93 1015.8
20260905092615 13 173 0.0 0.0 0.00 0.00 0.18 94 1015.6
20260905091614 13 173 0.0 0.0 0.00 0.00 0.18 93 1015.6
20260905085612 13 173 0.0 0.0 0.00 0.00 0.18 93 1015.6
20260905084611 13 173 0.0 0.0 0.00 0.00 0.18 93 1015.6
20260905082609 13 173 0.0 0.0 0.00 0.00 0.18 93 1015.4
20260905080607 13 173 0.0 0.0 0.00 0.00 0.18 93 1015.4
20260905075606 13 173 0.0 0.0 0.00 0.00 0.18 93 1015.3
20260905074605 13 173 0.0 0.0 0.00 0.00 0.18 93 1015.3
20260905073604 13 173 0.0 0.0 0.00 0.00 0.18 93 1015.2
20260905072603 13 173 0.0 0.0 0.00 0.00 0.18 93 1015.3
20260905071602 13 173 0.0 0.0 0.00 0.00 0.18 93 1015.3
20260905070601 13 173 0.0 0.0 0.00 0.00 0.18 93 1015.1
20260905065559 13 173 0.0 0.0 0.00 0.00 0.15 93 1015.1
20260905064559 13 173 0.0 0.0 0.00 0.00 0.15 93 1015.0
20260905063557 13 173 0.0 0.0 0.00 0.00 0.15 93 1014.9
20260905062557 13 173 0.0 0.0 0.00 0.00 0.15 93 1014.8
20260905061555 13 173 0.0 0.0 0.00 0.00 0.15 93 1014.6
20260905055553 13 173 0.0 0.0 0.00 0.00 0.15 93 1014.6
20260905054552 13 173 0.0 0.0 0.00 0.00 0.15 93 1014.7
20260905053551 13 173 0.0 0.0 0.00 0.00 0.15 93 1014.6
20260905044547 13 173 0.0 0.0 0.00 0.00 0.15 93 1014.5
20260905043545 13 172 0.0 0.0 0.00 0.00 0.15 92 1014.5
20260905042544 13 172 0.0 0.0 0.00 0.00 0.15 91 1014.6
20260905041543 13 172 0.0 0.0 0.00 0.00 0.15 91 1014.5
20260905040542 13 172 0.0 0.0 0.00 0.00 0.15 91 1014.5
20260905035542 13 172 0.0 0.0 0.00 0.00 0.15 90 1014.3
20260905034541 13 172 0.0 0.0 0.00 0.00 0.15 90 1014.2
20260905033539 14 172 0.0 0.0 0.00 0.00 0.15 90 1014.1
20260905032539 14 172 0.0 0.0 0.00 0.00 0.15 90 1014.0
20260905031539 14 172 0.0 0.0 0.00 0.00 0.15 90 1013.9
20260905030536 15 172 0.0 0.0 0.00 0.00 0.15 89 1013.8
20260905025535 15 172 0.0 0.0 0.00 0.00 0.15 89 1013.7
20260905024534 15 172 0.0 0.0 0.00 0.00 0.15 89 1013.8
20260905023534 15 172 0.0 0.0 0.00 0.00 0.15 88 1013.7
20260905022532 15 172 0.0 0.0 0.00 0.00 0.15 88 1013.8
20260905021531 15 172 0.0 0.0 0.00 0.00 0.13 88 1013.8
20260905020530 16 172 0.0 0.0 0.00 0.00 0.13 88 1013.7
20260905015529 16 172 0.0 0.0 0.00 0.00 0.13 88 1013.5
20260905014528 16 172 0.0 0.0 0.00 0.00 0.13 87 1013.5
20260905012526 16 172 0.0 0.0 0.00 0.00 0.13 88 1013.3